�������l�o���
Date,Time,MP-1(��Sv/h),MP-2(��Sv/h),MP-3(��Sv/h),MP-4(��Sv/h),MP-5(��Sv/h),MP-6(��Sv/h),MP-7(��Sv/h),MP-8(��Sv/h),����,����(m/s),���J
2018/12/28,00:00,0.779,1.164,0.816,1.493,1.061,0.450,0.799,0.756,�k��,10.5,��
2018/12/28,00:10,0.779,1.165,0.819,1.493,1.061,0.449,0.798,0.758,�k��,10.2,��
2018/12/28,00:20,0.780,1.163,0.818,1.494,1.061,0.449,0.800,0.757,�k��,8.4,��
2018/12/28,00:30,0.780,1.162,0.818,1.494,1.059,0.450,0.797,0.758,�k��,11.1,��
2018/12/28,00:40,0.779,1.164,0.818,1.494,1.059,0.449,0.799,0.758,�k��,9.1,��
2018/12/28,00:50,0.778,1.167,0.818,1.495,1.059,0.452,0.798,0.759,�k��,10.0,��
2018/12/28,01:00,0.779,1.162,0.819,1.493,1.061,0.450,0.799,0.756,�k��,7.6,�L
2018/12/28,01:10,0.780,1.164,0.819,1.491,1.061,0.452,0.798,0.756,�k��,8.7,��
2018/12/28,01:20,0.779,1.165,0.820,1.498,1.060,0.451,0.797,0.756,�k��,7.6,��
2018/12/28,01:30,0.780,1.165,0.821,1.498,1.061,0.451,0.798,0.758,�k��,7.4,�L
2018/12/28,01:40,0.782,1.165,0.818,1.495,1.060,0.453,0.798,0.758,�k��,8.4,�L
2018/12/28,01:50,0.781,1.164,0.819,1.497,1.061,0.453,0.799,0.757,�k��,9.6,��
2018/12/28,02:00,0.781,1.163,0.820,1.494,1.061,0.451,0.798,0.758,�k��,8.5,��
2018/12/28,02:10,0.780,1.163,0.819,1.494,1.059,0.451,0.798,0.755,�k��,7.4,��
2018/12/28,02:20,0.778,1.165,0.820,1.496,1.057,0.450,0.800,0.758,�k��,9.4,��
2018/12/28,02:30,0.781,1.163,0.817,1.495,1.060,0.452,0.799,0.756,�k��,7.9,��
2018/12/28,02:40,0.780,1.165,0.816,1.493,1.059,0.451,0.798,0.757,�k��,8.3,��
2018/12/28,02:50,0.778,1.163,0.818,1.495,1.060,0.451,0.797,0.759,���k��,8.8,��
2018/12/28,03:00,0.778,1.162,0.820,1.495,1.059,0.451,0.798,0.758,���k��,8.0,��
2018/12/28,03:10,0.777,1.163,0.817,1.494,1.059,0.451,0.797,0.757,�k��,6.7,��
2018/12/28,03:20,0.780,1.166,0.818,1.494,1.058,0.452,0.799,0.758,���k��,6.8,��
2018/12/28,03:30,0.780,1.165,0.817,1.497,1.060,0.452,0.799,0.759,���k��,5.6,��
2018/12/28,03:40,0.779,1.163,0.820,1.496,1.059,0.451,0.798,0.757,���k��,3.9,��
2018/12/28,03:50,0.780,1.166,0.820,1.493,1.059,0.450,0.796,0.757,���k��,4.1,��
2018/12/28,04:00,0.777,1.165,0.817,1.493,1.059,0.451,0.798,0.756,��,4.3,��
2018/12/28,04:10,0.779,1.164,0.817,1.493,1.057,0.451,0.800,0.757,���쐼,5.2,��
2018/12/28,04:20,0.778,1.161,0.818,1.495,1.059,0.451,0.797,0.758,��,6.0,��
2018/12/28,04:30,0.779,1.164,0.819,1.494,1.059,0.451,0.798,0.757,��,6.5,��
2018/12/28,04:40,0.778,1.165,0.819,1.493,1.061,0.451,0.798,0.756,���k��,7.6,��
2018/12/28,04:50,0.779,1.163,0.818,1.493,1.058,0.451,0.797,0.757,���k��,8.1,��
2018/12/28,05:00,0.778,1.164,0.819,1.492,1.059,0.451,0.800,0.757,�k��,4.6,��
2018/12/28,05:10,0.778,1.164,0.817,1.493,1.059,0.452,0.798,0.758,�k�k��,4.1,��
2018/12/28,05:20,0.778,1.163,0.819,1.495,1.059,0.451,0.797,0.758,�k��,3.8,��
2018/12/28,05:30,0.779,1.163,0.818,1.497,1.060,0.452,0.797,0.756,���k��,5.1,��
2018/12/28,05:40,0.776,1.163,0.816,1.493,1.056,0.451,0.799,0.756,��,5.0,��
2018/12/28,05:50,0.779,1.163,0.818,1.494,1.058,0.449,0.800,0.758,��,4.0,��
2018/12/28,06:00,0.778,1.164,0.818,1.494,1.057,0.450,0.801,0.756,���k��,6.5,��
2018/12/28,06:10,0.778,1.163,0.819,1.493,1.056,0.449,0.799,0.758,���k��,7.8,��
2018/12/28,06:20,0.778,1.163,0.820,1.496,1.055,0.450,0.799,0.756,���k��,4.4,��
2018/12/28,06:30,0.778,1.163,0.818,1.494,1.057,0.450,0.801,0.757,��,6.3,��
2018/12/28,06:40,0.779,1.164,0.818,1.492,1.054,0.451,0.798,0.755,��,6.5,��
2018/12/28,06:50,0.780,1.160,0.818,1.493,1.058,0.450,0.798,0.756,���k��,7.5,��
2018/12/28,07:00,0.780,1.163,0.816,1.494,1.055,0.451,0.799,0.756,��,8.0,��
2018/12/28,07:10,0.778,1.163,0.818,1.495,1.057,0.452,0.799,0.756,��,7.9,��
2018/12/28,07:20,0.780,1.164,0.818,1.493,1.055,0.452,0.799,0.758,��,8.2,��
2018/12/28,07:30,0.776,1.164,0.817,1.493,1.055,0.450,0.799,0.757,��,7.2,��
2018/12/28,07:40,0.779,1.164,0.818,1.494,1.054,0.451,0.800,0.756,��,7.2,��
2018/12/28,07:50,0.779,1.164,0.818,1.494,1.054,0.451,0.801,0.757,��,7.6,��
2018/12/28,08:00,0.781,1.164,0.819,1.492,1.055,0.450,0.800,0.759,���k��,12.1,��
2018/12/28,08:10,0.779,1.165,0.819,1.494,1.057,0.451,0.799,0.757,���k��,11.0,��
2018/12/28,08:20,0.781,1.166,0.817,1.495,1.057,0.450,0.800,0.757,���k��,9.2,��
2018/12/28,08:30,0.782,1.168,0.818,1.494,1.059,0.451,0.800,0.758,���k��,9.4,��
2018/12/28,08:40,0.778,1.164,0.820,1.493,1.058,0.452,0.800,0.758,���k��,7.5,��
2018/12/28,08:50,0.782,1.165,0.818,1.493,1.059,0.452,0.800,0.757,��,9.3,��
2018/12/28,09:00,0.780,1.166,0.819,1.497,1.062,0.452,0.800,0.758,���k��,8.2,��
2018/12/28,09:10,0.780,1.164,0.819,1.496,1.060,0.452,0.802,0.756,���k��,8.8,��
2018/12/28,09:20,0.782,1.165,0.820,1.495,1.059,0.452,0.798,0.757,��,8.8,��
2018/12/28,09:30,0.782,1.166,0.822,1.495,1.060,0.453,0.801,0.758,���k��,9.7,��
2018/12/28,09:40,0.782,1.167,0.819,1.495,1.060,0.453,0.801,0.757,���k��,8.1,��
2018/12/28,09:50,0.780,1.170,0.819,1.499,1.060,0.452,0.802,0.758,���k��,8.3,��
2018/12/28,10:00,0.783,1.165,0.821,1.497,1.059,0.452,0.798,0.758,���k��,9.3,��
2018/12/28,10:10,0.786,1.167,0.821,1.495,1.061,0.453,0.799,0.756,���k��,7.5,��
2018/12/28,10:20,0.783,1.168,0.822,1.493,1.060,0.453,0.800,0.758,���k��,5.3,��
2018/12/28,10:30,0.782,1.170,0.822,1.498,1.059,0.452,0.798,0.758,���k��,5.9,��
2018/12/28,10:40,0.783,1.168,0.821,1.497,1.059,0.452,0.800,0.758,���k��,9.9,��
2018/12/28,10:50,0.783,1.170,0.823,1.496,1.062,0.455,0.798,0.759,���k��,10.5,��
2018/12/28,11:00,0.784,1.171,0.822,1.496,1.062,0.455,0.799,0.759,���k��,12.8,��
2018/12/28,11:10,0.782,1.171,0.822,1.496,1.062,0.454,0.799,0.759,���k��,11.3,��
2018/12/28,11:20,0.780,1.169,0.821,1.496,1.061,0.454,0.801,0.758,���k��,10.2,��
2018/12/28,11:30,0.783,1.164,0.822,1.498,1.062,0.454,0.801,0.758,���k��,8.8,��
2018/12/28,11:40,0.781,1.166,0.822,1.497,1.064,0.454,0.801,0.761,���k��,9.1,��
2018/12/28,11:50,0.783,1.162,0.822,1.499,1.062,0.455,0.802,0.758,���k��,7.7,��
2018/12/28,12:00,0.783,1.170,0.821,1.498,1.063,0.452,0.802,0.758,���k��,6.4,��
2018/12/28,12:10,0.782,1.170,0.822,1.496,1.066,0.453,0.801,0.758,�k��,8.4,��
2018/12/28,12:20,0.784,1.171,0.822,1.497,1.062,0.455,0.800,0.758,�k��,7.2,��
2018/12/28,12:30,0.785,1.168,0.823,1.496,1.063,0.454,0.801,0.759,�k��,8.0,��
2018/12/28,12:40,0.784,1.168,0.822,1.496,1.066,0.454,0.801,0.759,�k��,9.1,��
2018/12/28,12:50,0.783,1.169,0.819,1.497,1.063,0.451,0.800,0.758,�k��,8.2,��
2018/12/28,13:00,0.784,1.172,0.821,1.498,1.061,0.453,0.800,0.758,�k��,8.7,��
2018/12/28,13:10,0.784,1.170,0.823,1.498,1.064,0.452,0.801,0.757,�k��,8.0,��
2018/12/28,13:20,0.786,1.171,0.820,1.498,1.061,0.452,0.802,0.758,�k��,7.5,��
2018/12/28,13:30,0.785,1.171,0.820,1.499,1.064,0.454,0.803,0.759,�k��,8.3,��
2018/12/28,13:40,0.784,1.172,0.822,1.500,1.063,0.453,0.802,0.758,�k��,6.7,��
2018/12/28,13:50,0.785,1.172,0.822,1.499,1.065,0.453,0.803,0.758,�k��,8.3,��
2018/12/28,14:00,0.783,1.169,0.822,1.498,1.065,0.454,0.801,0.759,�k��,7.7,��
2018/12/28,14:10,0.783,1.169,0.821,1.498,1.064,0.452,0.801,0.758,�k��,9.1,��
2018/12/28,14:20,0.784,1.171,0.820,1.499,1.049,0.453,0.800,0.757,���k��,8.9,��
2018/12/28,14:30,0.783,1.169,0.820,1.495,1.059,0.453,0.801,0.758,���k��,8.3,�L
2018/12/28,14:40,0.784,1.170,0.821,1.497,1.063,0.453,0.799,0.759,�k��,8.2,��
2018/12/28,14:50,0.783,1.168,0.821,1.498,1.061,0.453,0.800,0.758,�k��,8.3,��
2018/12/28,15:00,0.783,1.170,0.821,1.498,1.059,0.453,0.800,0.758,�k��,7.7,��
2018/12/28,15:10,0.782,1.170,0.819,1.499,1.062,0.452,0.800,0.757,���k��,6.9,��
2018/12/28,15:20,0.782,1.171,0.820,1.495,1.063,0.452,0.799,0.759,���k��,6.1,��
2018/12/28,15:30,0.783,1.172,0.821,1.498,1.063,0.453,0.801,0.757,��,5.4,��
2018/12/28,15:40,0.783,1.171,0.820,1.499,1.063,0.452,0.800,0.758,��,5.6,��
2018/12/28,15:50,0.781,1.170,0.819,1.500,1.062,0.452,0.798,0.759,��,5.2,��
2018/12/28,16:00,0.780,1.170,0.820,1.497,1.062,0.452,0.799,0.759,���쐼,5.3,��
2018/12/28,16:10,0.783,1.169,0.820,1.496,1.062,0.451,0.799,0.758,���쐼,6.8,��
2018/12/28,16:20,0.782,1.170,0.821,1.497,1.061,0.452,0.799,0.758,���쐼,6.2,��
2018/12/28,16:30,0.780,1.168,0.820,1.498,1.061,0.453,0.800,0.759,��,5.7,��
2018/12/28,16:40,0.781,1.169,0.819,1.495,1.062,0.453,0.799,0.758,��,5.9,��
2018/12/28,16:50,0.781,1.168,0.820,1.496,1.062,0.451,0.797,0.757,��,5.9,��
2018/12/28,17:00,0.784,1.169,0.820,1.497,1.061,0.452,0.800,0.757,��,5.2,��
2018/12/28,17:10,0.781,1.167,0.819,1.496,1.063,0.452,0.799,0.757,��,5.2,��
2018/12/28,17:20,0.781,1.168,0.819,1.498,1.061,0.451,0.798,0.758,���k��,3.9,��
2018/12/28,17:30,0.779,1.165,0.819,1.496,1.062,0.451,0.800,0.758,�k�k��,3.2,��
2018/12/28,17:40,0.782,1.169,0.821,1.498,1.061,0.451,0.800,0.756,�k�k��,3.4,��
2018/12/28,17:50,0.783,1.170,0.819,1.495,1.062,0.451,0.797,0.758,��,2.6,��
2018/12/28,18:00,0.781,1.170,0.820,1.497,1.064,0.452,0.799,0.757,��,4.3,��
2018/12/28,18:10,0.780,1.169,0.821,1.495,1.061,0.452,0.798,0.756,��,4.7,��
2018/12/28,18:20,0.783,1.167,0.819,1.498,1.062,0.451,0.797,0.757,��,5.6,��
2018/12/28,18:30,0.780,1.167,0.820,1.497,1.061,0.451,0.799,0.757,��,6.7,��
2018/12/28,18:40,0.782,1.167,0.818,1.495,1.061,0.451,0.798,0.757,��,7.9,��
2018/12/28,18:50,0.781,1.167,0.819,1.495,1.060,0.452,0.799,0.756,��,7.7,��
2018/12/28,19:00,0.782,1.166,0.820,1.495,1.060,0.453,0.800,0.755,��,7.5,��
2018/12/28,19:10,0.782,1.169,0.820,1.495,1.060,0.450,0.799,0.757,��,7.1,��
2018/12/28,19:20,0.781,1.167,0.817,1.496,1.058,0.450,0.799,0.755,��,7.9,��
2018/12/28,19:30,0.780,1.163,0.816,1.496,1.058,0.449,0.797,0.756,��,6.8,��
2018/12/28,19:40,0.782,1.163,0.818,1.499,1.059,0.450,0.800,0.755,��,7.5,��
2018/12/28,19:50,0.780,1.166,0.817,1.494,1.059,0.449,0.799,0.757,��,8.4,��
2018/12/28,20:00,0.779,1.169,0.816,1.492,1.059,0.450,0.798,0.756,��,8.7,��
2018/12/28,20:10,0.779,1.166,0.816,1.494,1.058,0.450,0.798,0.758,��,8.0,��
2018/12/28,20:20,0.780,1.163,0.818,1.495,1.058,0.449,0.799,0.757,��,7.1,��
2018/12/28,20:30,0.781,1.166,0.819,1.497,1.056,0.451,0.799,0.756,��,6.1,��
2018/12/28,20:40,0.779,1.165,0.815,1.495,1.056,0.453,0.799,0.756,��,7.4,��
2018/12/28,20:50,0.782,1.165,0.818,1.498,1.058,0.452,0.799,0.757,��,6.9,��
2018/12/28,21:00,0.782,1.167,0.819,1.496,1.058,0.451,0.800,0.755,��,6.6,��
2018/12/28,21:10,0.780,1.166,0.819,1.495,1.058,0.450,0.800,0.758,��,7.2,��
2018/12/28,21:20,0.779,1.165,0.818,1.497,1.060,0.453,0.801,0.756,��,5.7,��
2018/12/28,21:30,0.780,1.166,0.817,1.497,1.059,0.452,0.800,0.757,��,4.4,��
2018/12/28,21:40,0.779,1.167,0.819,1.496,1.058,0.452,0.798,0.756,��,3.2,��
2018/12/28,21:50,0.782,1.166,0.818,1.495,1.060,0.452,0.798,0.758,��,2.6,��
2018/12/28,22:00,0.778,1.167,0.819,1.495,1.059,0.452,0.799,0.757,��,4.2,��
2018/12/28,22:10,0.778,1.166,0.819,1.498,1.059,0.453,0.799,0.757,��,4.5,��
2018/12/28,22:20,0.779,1.167,0.818,1.496,1.059,0.452,0.799,0.757,��,4.2,��
2018/12/28,22:30,0.780,1.166,0.818,1.498,1.060,0.452,0.800,0.758,��,4.9,��
2018/12/28,22:40,0.780,1.165,0.819,1.496,1.059,0.451,0.797,0.756,��,3.3,��
2018/12/28,22:50,0.779,1.168,0.819,1.496,1.060,0.452,0.798,0.756,��,5.0,��
2018/12/28,23:00,0.778,1.166,0.818,1.497,1.061,0.451,0.797,0.755,���k��,4.5,��
2018/12/28,23:10,0.778,1.166,0.820,1.495,1.060,0.451,0.799,0.756,���k��,5.1,��
2018/12/28,23:20,0.780,1.168,0.819,1.494,1.060,0.451,0.799,0.757,���k��,3.9,��
2018/12/28,23:30,0.782,1.166,0.820,1.496,1.060,0.452,0.798,0.755,���k��,2.8,��
2018/12/28,23:40,0.778,1.166,0.819,1.494,1.061,0.452,0.797,0.755,��,2.2,��
2018/12/28,23:50,0.780,1.166,0.817,1.496,1.061,0.451,0.796,0.756,���k��,2.8,��
